Tracking 20241 objects as of 26-Jan-2020
HD Live streaming from Space Station
objects crossing your sky now

COSMOS 2251 DEB

Track COSMOS 2251 DEB now!
10-day predictions


NORAD ID: 34916
Int'l Code: 1993-036ADM
Perigee: 595.7 km
Apogee: 735.7 km
Inclination: 74.1 °
Period: 97.9 minutes
Semi major axis: 7036 km
RCS: 0.0123 m2 (small)
Launch date: June 16, 1993
Source: Commonwealth of Independent States (former USSR) (CIS)
Launch site: PLESETSK MISSILE AND SPACE COMPLEX (PKMTR)

Note: This is SATELLITE DEBRIS
aabbcc
Your satellite tracking list
Your tracking list is empty




NASA's NSSDC Master Catalog

Two Line Element Set (TLE):
1 34916U 93036ADM 20025.40821324 +.00001107 +00000-0 +17344-3 0  9998
2 34916 074.0780 358.1701 0099448 350.0764 173.0392 14.70789388579398
Source of the keplerian elements: AFSPC